sat.trackr.live / text

‹ back to catalog

STARLINK-30955

NORAD 58417 · 2023-180R

PAYLOAD ACTIVE UNKNOWN

§ Identity

Operator
Country
US
Launch date
2023-11-22
Launch site
AFETR
Launch vehicle
Mass (kg)
RCS (m²)

Purposes: comms

External: N2YO · Heavens-Above · Gunter

§ Orbital elements

Epoch: 2026-05-24T22:46:07.279104Z

Period
94.27 min
Inclination
43.0037°
Eccentricity
0.0001279
Mean motion
15.27568285 rev/d
Perigee alt
482.2 km
Apogee alt
484.0 km
Semi-major
6,861.2 km
B*
1.3783e-4
RAAN
341.4559°
Arg perigee
267.7570°
Mean anomaly
92.3135°
Rev number
13,929

§ Raw data

STARLINK-309551 58417U 23180R   26144.94869536  .00003531  00000+0  13783-3 0  99922 58417  43.0037 341.4559 0001279 267.7570  92.3135 15.27568285139294

JSON: /api/v1/satellites/58417 · /tle

For live sub-satellite position, see the globe view (requires WebGL).

§ Visibility from observer

Set your observer location to see the next 7 days of passes ≥ 10°. The values pass through the URL so the page stays shareable.

No JS? Fill the form by hand. The geolocation button needs JavaScript.